Time,TemperatureF,DewpointF,PressureIn,WindDirection,WindDirectionDegrees,WindSpeedMPH,WindSpeedGustMPH,Humidity,HourlyPrecipIn,Conditions,Clouds,dailyrainin,SoftwareType,DateUTC
2013-07-12 00:01:00,77.1,61.7,29.90,SSW,193,5.8,5.8,59,0.00,CLR,CLR,0.00,WeatherDisplay:10.37,2013-07-12 05:01:00,
2013-07-12 00:06:00,77.0,61.6,29.91,SW,221,6.0,6.0,59,0.00,CLR,CLR,0.00,WeatherDisplay:10.37,2013-07-12 05:06:00,
2013-07-12 00:11:00,76.9,61.5,29.91,ENE,67,8.1,8.1,59,0.00,CLR,CLR,0.00,WeatherDisplay:10.37,2013-07-12 05:11:00,
2013-07-12 00:16:00,76.8,61.9,29.91,SSW,196,4.0,4.0,60,0.00,CLR,CLR,0.00,WeatherDisplay:10.37,2013-07-12 05:16:00,
2013-07-12 00:21:00,76.7,61.8,29.91,SSW,211,6.0,6.0,60,0.00,CLR,CLR,0.00,WeatherDisplay:10.37,2013-07-12 05:21:00,
2013-07-12 00:26:00,76.6,61.7,29.91,South,185,5.0,5.0,60,0.00,CLR,CLR,0.00,WeatherDisplay:10.37,2013-07-12 05:26:00,
2013-07-12 00:31:00,76.4,61.5,29.91,SSW,202,6.0,6.0,60,0.00,CLR,CLR,0.00,WeatherDisplay:10.37,2013-07-12 05:31:00,
2013-07-12 00:36:00,76.4,61.5,29.91,SSW,209,6.0,6.0,60,0.00,CLR,CLR,0.00,WeatherDisplay:10.37,2013-07-12 05:36:00,
2013-07-12 00:41:00,76.2,61.3,29.91,SW,229,4.0,4.0,60,0.00,CLR,CLR,0.00,WeatherDisplay:10.37,2013-07-12 05:41:00,
2013-07-12 00:46:00,76.2,61.3,29.91,WSW,255,7.0,7.0,60,0.00,CLR,CLR,0.00,WeatherDisplay:10.37,2013-07-12 05:46:00,
2013-07-12 00:51:00,76.0,61.1,29.91,SSW,205,7.0,7.0,60,0.00,CLR,CLR,0.00,WeatherDisplay:10.37,2013-07-12 05:51:00,
2013-07-12 00:56:00,76.0,61.6,29.91,East,93,2.3,2.3,61,0.00,CLR,CLR,0.00,WeatherDisplay:10.37,2013-07-12 05:56:00,
2013-07-12 01:01:00,75.9,61.5,29.91,SSW,198,3.5,3.5,61,0.00,CLR,CLR,0.00,WeatherDisplay:10.37,2013-07-12 06:01:00,
2013-07-12 01:06:00,75.8,60.9,29.91,WSW,252,5.0,5.0,60,0.00,CLR,CLR,0.00,WeatherDisplay:10.37,2013-07-12 06:06:00,
2013-07-12 01:16:00,75.7,60.8,29.91,SSW,208,4.0,4.0,60,0.00,CLR,CLR,0.00,WeatherDisplay:10.37,2013-07-12 06:16:00,
2013-07-12 01:21:00,75.6,60.7,29.91,South,172,5.0,5.0,60,0.00,CLR,CLR,0.00,WeatherDisplay:10.37,2013-07-12 06:21:00,
2013-07-12 01:26:00,75.6,60.7,29.90,SW,222,6.9,6.9,60,0.00,CLR,CLR,0.00,WeatherDisplay:10.37,2013-07-12 06:26:00,
2013-07-12 01:31:00,75.5,60.6,29.90,SSW,204,5.8,5.8,60,0.00,CLR,CLR,0.00,WeatherDisplay:10.37,2013-07-12 06:31:00,
2013-07-12 01:36:00,75.4,61.0,29.90,SSE,153,3.0,3.0,61,0.00,CLR,CLR,0.00,WeatherDisplay:10.37,2013-07-12 06:36:00,
2013-07-12 01:41:00,75.3,60.9,29.90,SSW,203,7.0,7.0,61,0.00,CLR,CLR,0.00,WeatherDisplay:10.37,2013-07-12 06:41:00,
2013-07-12 01:46:00,75.3,60.9,29.90,SSW,201,6.0,6.0,61,0.00,CLR,CLR,0.00,WeatherDisplay:10.37,2013-07-12 06:46:00,
2013-07-12 01:51:00,75.1,60.7,29.90,WSW,242,8.1,8.1,61,0.00,CLR,CLR,0.00,WeatherDisplay:10.37,2013-07-12 06:51:00,
2013-07-12 01:56:00,75.1,60.7,29.90,WNW,295,3.5,3.5,61,0.00,CLR,CLR,0.00,WeatherDisplay:10.37,2013-07-12 06:56:00,
2013-07-12 02:01:00,75.1,60.7,29.90,SW,234,5.8,5.8,61,0.00,CLR,CLR,0.00,WeatherDisplay:10.37,2013-07-12 07:01:00,
2013-07-12 02:06:00,75.0,60.6,29.90,South,183,3.0,3.0,61,0.00,CLR,CLR,0.00,WeatherDisplay:10.37,2013-07-12 07:06:00,
2013-07-12 02:11:00,74.8,60.4,29.90,SW,216,2.3,2.3,61,0.00,CLR,CLR,0.00,WeatherDisplay:10.37,2013-07-12 07:11:00,
2013-07-12 02:16:00,74.7,60.4,29.89,South,184,2.3,2.3,61,0.00,CLR,CLR,0.00,WeatherDisplay:10.37,2013-07-12 07:16:00,
2013-07-12 02:21:00,74.6,60.3,29.89,SE,133,3.5,3.5,61,0.00,CLR,CLR,0.00,WeatherDisplay:10.37,2013-07-12 07:21:00,
2013-07-12 02:26:00,74.5,60.2,29.90,SE,144,4.0,4.0,61,0.00,CLR,CLR,0.00,WeatherDisplay:10.37,2013-07-12 07:26:00,
2013-07-12 02:31:00,74.5,60.2,29.89,SSW,203,3.0,3.0,61,0.00,CLR,CLR,0.00,WeatherDisplay:10.37,2013-07-12 07:31:00,
2013-07-12 02:36:00,74.4,60.1,29.89,SW,232,4.6,4.6,61,0.00,CLR,CLR,0.00,WeatherDisplay:10.37,2013-07-12 07:36:00,
2013-07-12 02:42:00,74.4,59.6,29.89,SSW,194,4.0,4.0,60,0.00,CLR,CLR,0.00,WeatherDisplay:10.37,2013-07-12 07:42:00,
2013-07-12 02:47:00,74.4,59.6,29.90,SSW,213,3.5,3.5,60,0.00,CLR,CLR,0.00,WeatherDisplay:10.37,2013-07-12 07:47:00,
2013-07-12 02:52:00,74.3,59.5,29.90,ESE,111,5.0,5.0,60,0.00,CLR,CLR,0.00,WeatherDisplay:10.37,2013-07-12 07:52:00,
2013-07-12 02:57:00,74.2,59.4,29.89,SSW,204,5.0,5.0,60,0.00,CLR,CLR,0.00,WeatherDisplay:10.37,2013-07-12 07:57:00,
2013-07-12 03:02:00,74.1,59.8,29.90,SSW,205,4.0,4.0,61,0.00,CLR,CLR,0.00,WeatherDisplay:10.37,2013-07-12 08:02:00,
2013-07-12 03:07:00,74.0,59.7,29.89,SSW,209,4.0,4.0,61,0.00,CLR,CLR,0.00,WeatherDisplay:10.37,2013-07-12 08:07:00,
2013-07-12 03:12:00,74.0,59.7,29.90,SW,218,3.5,3.5,61,0.00,CLR,CLR,0.00,WeatherDisplay:10.37,2013-07-12 08:12:00,
2013-07-12 03:17:00,73.9,59.6,29.89,NE,52,4.0,4.0,61,0.00,CLR,CLR,0.00,WeatherDisplay:10.37,2013-07-12 08:17:00,
2013-07-12 03:22:00,73.9,59.6,29.89,SSW,198,3.5,3.5,61,0.00,CLR,CLR,0.00,WeatherDisplay:10.37,2013-07-12 08:22:00,
2013-07-12 03:27:00,73.9,59.6,29.89,WSW,240,7.0,7.0,61,0.00,CLR,CLR,0.00,WeatherDisplay:10.37,2013-07-12 08:27:00,
2013-07-12 03:32:00,73.9,59.6,29.89,SW,216,4.0,4.0,61,0.00,CLR,CLR,0.00,WeatherDisplay:10.37,2013-07-12 08:32:00,
2013-07-12 03:37:00,73.8,59.5,29.89,SW,214,2.3,2.3,61,0.00,CLR,CLR,0.00,WeatherDisplay:10.37,2013-07-12 08:37:00,
2013-07-12 03:42:00,73.6,59.3,29.89,ENE,78,3.5,3.5,61,0.00,CLR,CLR,0.00,WeatherDisplay:10.37,2013-07-12 08:42:00,
2013-07-12 03:47:00,73.5,59.2,29.89,SW,224,3.5,3.5,61,0.00,CLR,CLR,0.00,WeatherDisplay:10.37,2013-07-12 08:47:00,
2013-07-12 03:52:00,73.5,59.2,29.89,SW,232,3.5,3.5,61,0.00,CLR,CLR,0.00,WeatherDisplay:10.37,2013-07-12 08:52:00,
2013-07-12 03:57:00,73.4,59.1,29.89,SW,221,4.0,4.0,61,0.00,CLR,CLR,0.00,WeatherDisplay:10.37,2013-07-12 08:57:00,
2013-07-12 04:02:00,73.3,59.0,29.89,SW,215,5.0,5.0,61,0.00,CLR,CLR,0.00,WeatherDisplay:10.37,2013-07-12 09:02:00,
2013-07-12 04:07:00,73.3,59.0,29.89,ESE,102,3.5,3.5,61,0.00,CLR,CLR,0.00,WeatherDisplay:10.37,2013-07-12 09:07:00,
2013-07-12 04:12:00,73.3,59.0,29.89,South,182,3.0,3.0,61,0.00,CLR,CLR,0.00,WeatherDisplay:10.37,2013-07-12 09:12:00,
2013-07-12 04:17:00,73.3,59.0,29.89,SSW,194,4.0,4.0,61,0.00,CLR,CLR,0.00,WeatherDisplay:10.37,2013-07-12 09:17:00,
2013-07-12 04:22:00,73.3,59.0,29.89,WSW,253,3.5,3.5,61,0.00,CLR,CLR,0.00,WeatherDisplay:10.37,2013-07-12 09:22:00,
2013-07-12 04:27:00,73.2,58.9,29.88,SE,136,3.5,3.5,61,0.00,CLR,CLR,0.00,WeatherDisplay:10.37,2013-07-12 09:27:00,
2013-07-12 04:32:00,73.1,58.8,29.89,WSW,247,2.3,2.3,61,0.00,CLR,CLR,0.00,WeatherDisplay:10.37,2013-07-12 09:32:00,
2013-07-12 04:37:00,73.0,59.2,29.89,SE,128,2.3,2.3,62,0.00,CLR,CLR,0.00,WeatherDisplay:10.37,2013-07-12 09:37:00,
2013-07-12 04:42:00,72.9,59.1,29.89,SSW,210,4.0,4.0,62,0.00,CLR,CLR,0.00,WeatherDisplay:10.37,2013-07-12 09:42:00,
2013-07-12 04:47:00,73.0,59.2,29.89,South,182,2.3,2.3,62,0.00,CLR,CLR,0.00,WeatherDisplay:10.37,2013-07-12 09:47:00,
2013-07-12 04:52:00,72.9,59.1,29.88,NE,45,4.0,4.0,62,0.00,CLR,CLR,0.00,WeatherDisplay:10.37,2013-07-12 09:52:00,
2013-07-12 04:57:00,72.9,59.1,29.89,SSW,211,5.8,5.8,62,0.00,CLR,CLR,0.00,WeatherDisplay:10.37,2013-07-12 09:57:00,
2013-07-12 05:02:00,72.8,59.0,29.89,SSE,149,3.5,3.5,62,0.00,CLR,CLR,0.00,WeatherDisplay:10.37,2013-07-12 10:02:00,
2013-07-12 05:07:00,72.7,58.9,29.89,WSW,253,2.3,2.3,62,0.00,CLR,CLR,0.00,WeatherDisplay:10.37,2013-07-12 10:07:00,
2013-07-12 05:12:00,72.7,59.4,29.89,SSE,158,4.6,4.6,63,0.00,CLR,CLR,0.00,WeatherDisplay:10.37,2013-07-12 10:12:00,
2013-07-12 05:17:00,72.6,59.3,29.89,West,263,3.5,3.5,63,0.00,CLR,CLR,0.00,WeatherDisplay:10.37,2013-07-12 10:17:00,
2013-07-12 05:22:00,72.6,59.3,29.89,SSE,153,4.0,4.0,63,0.00,CLR,CLR,0.00,WeatherDisplay:10.37,2013-07-12 10:22:00,
2013-07-12 05:27:00,72.6,59.3,29.89,SSW,213,4.0,4.0,63,0.00,CLR,CLR,0.00,WeatherDisplay:10.37,2013-07-12 10:27:00,
2013-07-12 05:32:00,72.6,59.7,29.89,NE,34,1.2,1.2,64,0.00,CLR,CLR,0.00,WeatherDisplay:10.37,2013-07-12 10:32:00,
2013-07-12 05:37:00,72.5,59.6,29.89,South,185,2.0,0.0,64,0.00,CLR,CLR,0.00,WeatherDisplay:10.37,2013-07-12 10:37:00,
2013-07-12 05:42:00,72.4,59.5,29.89,SSW,207,3.5,3.5,64,0.00,CLR,CLR,0.00,WeatherDisplay:10.37,2013-07-12 10:42:00,
2013-07-12 05:47:00,72.4,59.5,29.89,SW,231,3.5,3.5,64,0.00,CLR,CLR,0.00,WeatherDisplay:10.37,2013-07-12 10:47:00,
2013-07-12 05:52:00,72.4,59.5,29.89,SW,217,3.0,3.0,64,0.00,CLR,CLR,0.00,WeatherDisplay:10.37,2013-07-12 10:52:00,
2013-07-12 05:57:00,72.4,59.5,29.89,South,185,1.2,1.2,64,0.00,CLR,CLR,0.00,WeatherDisplay:10.37,2013-07-12 10:57:00,
2013-07-12 06:02:00,72.3,59.4,29.89,ESE,102,1.2,0.0,64,0.00,CLR,CLR,0.00,WeatherDisplay:10.37,2013-07-12 11:02:00,
2013-07-12 06:07:00,72.3,59.4,29.89,ENE,57,3.5,3.5,64,0.00,CLR,CLR,0.00,WeatherDisplay:10.37,2013-07-12 11:07:00,
2013-07-12 06:12:00,72.2,59.8,29.90,SSE,154,2.3,2.3,65,0.00,CLR,CLR,0.00,WeatherDisplay:10.37,2013-07-12 11:12:00,
2013-07-12 06:17:00,72.2,59.8,29.90,West,259,1.2,1.2,65,0.00,CLR,CLR,0.00,WeatherDisplay:10.37,2013-07-12 11:17:00,
2013-07-12 06:22:00,72.2,59.8,29.90,SE,144,1.2,1.2,65,0.00,CLR,CLR,0.00,WeatherDisplay:10.37,2013-07-12 11:22:00,
2013-07-12 06:27:00,72.2,60.2,29.90,NW,308,2.3,2.3,66,0.00,CLR,CLR,0.00,WeatherDisplay:10.37,2013-07-12 11:27:00,
2013-07-12 06:32:00,72.2,60.6,29.90,SSW,205,1.2,1.2,67,0.00,CLR,CLR,0.00,WeatherDisplay:10.37,2013-07-12 11:32:00,
2013-07-12 06:37:00,72.2,60.6,29.90,West,259,2.0,2.0,67,0.00,CLR,CLR,0.00,WeatherDisplay:10.37,2013-07-12 11:37:00,
2013-07-12 06:42:00,72.3,60.7,29.90,West,267,4.0,4.0,67,0.00,CLR,CLR,0.00,WeatherDisplay:10.37,2013-07-12 11:42:00,
2013-07-12 06:47:00,72.3,60.7,29.90,ESE,113,5.0,5.0,67,0.00,CLR,CLR,0.00,WeatherDisplay:10.37,2013-07-12 11:47:00,
2013-07-12 06:52:00,72.4,60.8,29.90,SE,146,2.3,2.3,67,0.00,CLR,CLR,0.00,WeatherDisplay:10.37,2013-07-12 11:52:00,
2013-07-12 06:57:00,72.4,60.8,29.90,ENE,74,3.5,3.5,67,0.00,CLR,CLR,0.00,WeatherDisplay:10.37,2013-07-12 11:57:00,
2013-07-12 07:02:00,72.3,60.7,29.90,SSW,200,2.3,2.3,67,0.00,CLR,CLR,0.00,WeatherDisplay:10.37,2013-07-12 12:02:00,
2013-07-12 07:07:00,72.3,61.1,29.90,SSW,193,2.3,2.3,68,0.00,CLR,CLR,0.00,WeatherDisplay:10.37,2013-07-12 12:07:00,
2013-07-12 07:12:00,72.4,61.2,29.90,SSW,209,4.0,4.0,68,0.00,CLR,CLR,0.00,WeatherDisplay:10.37,2013-07-12 12:12:00,
2013-07-12 07:17:00,72.4,61.2,29.89,SSW,201,3.5,3.5,68,0.00,CLR,CLR,0.00,WeatherDisplay:10.37,2013-07-12 12:17:00,
2013-07-12 07:22:00,72.4,61.2,29.89,NNE,20,3.5,3.5,68,0.00,CLR,CLR,0.00,WeatherDisplay:10.37,2013-07-12 12:22:00,
2013-07-12 07:27:00,72.4,61.2,29.89,SSW,199,4.0,4.0,68,0.00,CLR,CLR,0.00,WeatherDisplay:10.37,2013-07-12 12:27:00,
2013-07-12 07:32:00,72.4,61.2,29.90,ENE,78,3.5,3.5,68,0.00,CLR,CLR,0.00,WeatherDisplay:10.37,2013-07-12 12:32:00,
2013-07-12 07:37:00,72.4,61.7,29.90,East,85,2.3,2.3,69,0.00,CLR,CLR,0.00,WeatherDisplay:10.37,2013-07-12 12:37:00,
2013-07-12 07:42:00,72.5,61.7,29.90,SSW,204,4.6,4.6,69,0.00,CLR,CLR,0.00,WeatherDisplay:10.37,2013-07-12 12:42:00,
2013-07-12 07:47:00,72.7,61.5,29.89,SSW,193,3.0,3.0,68,0.00,CLR,CLR,0.00,WeatherDisplay:10.37,2013-07-12 12:47:00,
2013-07-12 07:52:00,72.9,61.7,29.90,SSW,193,4.0,4.0,68,0.00,CLR,CLR,0.00,WeatherDisplay:10.37,2013-07-12 12:52:00,
2013-07-12 07:57:00,73.0,61.8,29.90,WNW,303,4.0,4.0,68,0.00,CLR,CLR,0.00,WeatherDisplay:10.37,2013-07-12 12:57:00,
2013-07-12 08:02:00,73.0,62.2,29.89,SSW,213,2.0,2.0,69,0.00,CLR,CLR,0.00,WeatherDisplay:10.37,2013-07-12 13:02:00,
2013-07-12 08:07:00,73.1,61.9,29.90,ESE,113,5.0,5.0,68,0.00,CLR,CLR,0.00,WeatherDisplay:10.37,2013-07-12 13:07:00,
2013-07-12 08:12:00,73.1,61.9,29.90,SW,217,4.6,4.6,68,0.00,CLR,CLR,0.00,WeatherDisplay:10.37,2013-07-12 13:12:00,
2013-07-12 08:17:00,73.2,62.0,29.90,SW,231,4.0,4.0,68,0.00,CLR,CLR,0.00,WeatherDisplay:10.37,2013-07-12 13:17:00,
2013-07-12 08:22:00,73.3,62.5,29.90,ENE,63,3.0,3.0,69,0.00,CLR,CLR,0.00,WeatherDisplay:10.37,2013-07-12 13:22:00,
2013-07-12 08:27:00,73.3,62.5,29.90,SSW,194,4.0,4.0,69,0.00,CLR,CLR,0.00,WeatherDisplay:10.37,2013-07-12 13:27:00,
2013-07-12 08:32:00,73.4,62.6,29.90,SSW,200,4.0,4.0,69,0.00,CLR,CLR,0.00,WeatherDisplay:10.37,2013-07-12 13:32:00,
2013-07-12 08:37:00,74.0,62.8,29.90,SW,218,5.0,5.0,68,0.00,CLR,CLR,0.00,WeatherDisplay:10.37,2013-07-12 13:37:00,
2013-07-12 08:42:00,74.6,62.9,29.90,West,281,3.5,3.5,67,0.00,CLR,CLR,0.00,WeatherDisplay:10.37,2013-07-12 13:42:00,
2013-07-12 08:47:00,75.0,62.9,29.90,ESE,113,8.1,8.1,66,0.00,CLR,CLR,0.00,WeatherDisplay:10.37,2013-07-12 13:47:00,
2013-07-12 08:52:00,75.4,63.7,29.90,ESE,121,3.5,3.5,67,0.00,CLR,CLR,0.00,WeatherDisplay:10.37,2013-07-12 13:52:00,
2013-07-12 08:57:00,75.9,63.3,29.90,SSW,199,3.5,3.5,65,0.00,CLR,CLR,0.00,WeatherDisplay:10.37,2013-07-12 13:57:00,
2013-07-12 09:02:00,76.3,63.7,29.90,South,178,3.5,3.5,65,0.00,CLR,CLR,0.00,WeatherDisplay:10.37,2013-07-12 14:02:00,
2013-07-12 09:07:00,76.6,63.5,29.90,SSW,211,4.0,4.0,64,0.00,CLR,CLR,0.00,WeatherDisplay:10.37,2013-07-12 14:07:00,
2013-07-12 09:12:00,77.1,64.0,29.90,WNW,302,4.0,4.0,64,0.00,CLR,CLR,0.00,WeatherDisplay:10.37,2013-07-12 14:12:00,
2013-07-12 09:17:00,77.8,64.2,29.90,SW,219,5.0,5.0,63,0.00,CLR,CLR,0.00,WeatherDisplay:10.37,2013-07-12 14:17:00,
2013-07-12 09:22:00,78.0,63.9,29.90,SW,234,7.0,7.0,62,0.00,CLR,CLR,0.00,WeatherDisplay:10.37,2013-07-12 14:22:00,
2013-07-12 09:27:00,78.3,63.7,29.90,WNW,301,4.0,4.0,61,0.00,CLR,CLR,0.00,WeatherDisplay:10.37,2013-07-12 14:27:00,
2013-07-12 09:32:00,78.5,64.9,29.90,SW,224,3.5,3.5,63,0.00,CLR,CLR,0.00,WeatherDisplay:10.37,2013-07-12 14:32:00,
2013-07-12 09:37:00,78.7,64.6,29.90,SW,222,3.5,3.5,62,0.00,CLR,CLR,0.00,WeatherDisplay:10.37,2013-07-12 14:37:00,
2013-07-12 09:42:00,79.3,64.2,29.90,SSW,207,6.0,6.0,60,0.00,CLR,CLR,0.00,WeatherDisplay:10.37,2013-07-12 14:42:00,
2013-07-12 09:47:00,79.5,63.9,29.90,ESE,114,6.0,6.0,59,0.00,CLR,CLR,0.00,WeatherDisplay:10.37,2013-07-12 14:47:00,
2013-07-12 09:52:00,79.7,64.6,29.90,SW,227,3.5,3.5,60,0.00,CLR,CLR,0.00,WeatherDisplay:10.37,2013-07-12 14:52:00,
2013-07-12 09:57:00,79.9,64.8,29.90,ENE,71,3.5,3.5,60,0.00,CLR,CLR,0.00,WeatherDisplay:10.37,2013-07-12 14:57:00,
2013-07-12 10:02:00,80.1,64.5,29.89,South,181,3.5,3.5,59,0.00,CLR,CLR,0.00,WeatherDisplay:10.37,2013-07-12 15:02:00,
2013-07-12 10:07:00,80.4,64.8,29.89,NNE,14,4.0,4.0,59,0.00,CLR,CLR,0.00,WeatherDisplay:10.37,2013-07-12 15:07:00,
2013-07-12 10:12:00,80.9,65.7,29.89,SSW,207,2.3,2.3,60,0.00,CLR,CLR,0.00,WeatherDisplay:10.37,2013-07-12 15:12:00,
2013-07-12 10:17:00,81.4,65.2,29.89,West,275,5.8,5.8,58,0.00,CLR,CLR,0.00,WeatherDisplay:10.37,2013-07-12 15:17:00,
2013-07-12 10:22:00,81.5,64.8,29.89,SSW,202,5.0,5.0,57,0.00,CLR,CLR,0.00,WeatherDisplay:10.37,2013-07-12 15:22:00,
2013-07-12 10:27:00,81.7,65.5,29.88,SW,224,4.0,4.0,58,0.00,CLR,CLR,0.00,WeatherDisplay:10.37,2013-07-12 15:27:00,
2013-07-12 10:32:00,81.9,65.7,29.88,South,190,5.0,5.0,58,0.00,CLR,CLR,0.00,WeatherDisplay:10.37,2013-07-12 15:32:00,
2013-07-12 10:37:00,82.3,65.0,29.88,SW,219,7.0,7.0,56,0.00,CLR,CLR,0.00,WeatherDisplay:10.37,2013-07-12 15:37:00,
2013-07-12 10:42:00,82.7,66.4,29.88,SSW,196,3.0,3.0,58,0.00,CLR,CLR,0.00,WeatherDisplay:10.37,2013-07-12 15:42:00,
2013-07-12 10:47:00,83.1,66.3,29.88,SSW,211,5.8,5.8,57,0.00,CLR,CLR,0.00,WeatherDisplay:10.37,2013-07-12 15:47:00,
2013-07-12 10:52:00,83.7,66.8,29.88,East,92,3.5,3.5,57,0.00,CLR,CLR,0.00,WeatherDisplay:10.37,2013-07-12 15:52:00,
2013-07-12 10:57:00,84.5,67.1,29.88,WSW,241,3.5,3.5,56,0.00,CLR,CLR,0.00,WeatherDisplay:10.37,2013-07-12 15:57:00,
2013-07-12 11:02:00,84.7,66.7,29.88,NE,43,2.3,2.3,55,0.00,CLR,CLR,0.00,WeatherDisplay:10.37,2013-07-12 16:02:00,
2013-07-12 11:07:00,85.0,66.5,29.88,SW,215,6.0,6.0,54,0.00,CLR,CLR,0.00,WeatherDisplay:10.37,2013-07-12 16:07:00,
2013-07-12 11:12:00,85.5,66.4,29.87,SW,232,8.0,8.0,53,0.00,CLR,CLR,0.00,WeatherDisplay:10.37,2013-07-12 16:12:00,
2013-07-12 11:17:00,85.7,67.1,29.87,SSW,200,4.0,4.0,54,0.00,CLR,CLR,0.00,WeatherDisplay:10.37,2013-07-12 16:17:00,
2013-07-12 11:22:00,85.8,67.2,29.88,SSW,200,5.8,5.8,54,0.00,CLR,CLR,0.00,WeatherDisplay:10.37,2013-07-12 16:22:00,
2013-07-12 11:27:00,85.9,67.3,29.88,West,280,3.5,3.5,54,0.00,CLR,CLR,0.00,WeatherDisplay:10.37,2013-07-12 16:27:00,
2013-07-12 11:32:00,86.6,68.0,29.87,SSW,192,2.3,2.3,54,0.00,CLR,CLR,0.00,WeatherDisplay:10.37,2013-07-12 16:32:00,
2013-07-12 11:37:00,86.7,67.0,29.87,West,263,3.5,3.5,52,0.00,CLR,CLR,0.00,WeatherDisplay:10.37,2013-07-12 16:37:00,
2013-07-12 11:42:00,86.7,67.5,29.87,ENE,67,4.0,4.0,53,0.00,CLR,CLR,0.00,WeatherDisplay:10.37,2013-07-12 16:42:00,
2013-07-12 11:47:00,87.0,68.3,29.87,NE,40,6.0,6.0,54,0.00,CLR,CLR,0.00,WeatherDisplay:10.37,2013-07-12 16:47:00,
2013-07-12 11:53:00,87.1,67.3,29.88,NW,325,8.1,8.1,52,0.00,CLR,CLR,0.00,WeatherDisplay:10.37,2013-07-12 16:53:00,
2013-07-12 11:58:00,87.0,67.8,29.88,ESE,117,7.0,7.0,53,0.00,CLR,CLR,0.00,WeatherDisplay:10.37,2013-07-12 16:58:00,
2013-07-12 12:03:00,87.7,67.9,29.87,North,355,5.0,5.0,52,0.00,CLR,CLR,0.00,WeatherDisplay:10.37,2013-07-12 17:03:00,
2013-07-12 12:08:00,87.7,67.9,29.87,SSW,209,5.0,5.0,52,0.00,CLR,CLR,0.00,WeatherDisplay:10.37,2013-07-12 17:08:00,
2013-07-12 12:13:00,87.9,69.2,29.87,SSW,195,8.1,8.1,54,0.00,CLR,CLR,0.00,WeatherDisplay:10.37,2013-07-12 17:13:00,
2013-07-12 12:18:00,88.1,68.8,29.87,East,85,3.5,3.5,53,0.00,CLR,CLR,0.00,WeatherDisplay:10.37,2013-07-12 17:18:00,
2013-07-12 12:23:00,88.5,69.2,29.86,SSW,211,3.5,3.5,53,0.00,CLR,CLR,0.00,WeatherDisplay:10.37,2013-07-12 17:23:00,
2013-07-12 12:28:00,88.7,69.4,29.86,SW,232,7.0,7.0,53,0.00,CLR,CLR,0.00,WeatherDisplay:10.37,2013-07-12 17:28:00,
2013-07-12 12:34:00,88.6,69.8,29.86,SW,215,5.8,5.8,54,0.00,CLR,CLR,0.00,WeatherDisplay:10.37,2013-07-12 17:34:00,
2013-07-12 12:40:00,89.1,69.2,29.86,SW,221,2.0,6.0,52,0.00,CLR,CLR,0.00,WeatherDisplay:10.37,2013-07-12 17:40:00,
2013-07-12 12:45:00,89.6,69.1,29.86,North,355,6.0,6.0,51,0.00,CLR,CLR,0.00,WeatherDisplay:10.37,2013-07-12 17:45:00,
2013-07-12 12:52:00,89.5,69.5,29.86,WSW,237,4.6,4.6,52,0.00,CLR,CLR,0.00,WeatherDisplay:10.37,2013-07-12 17:52:00,
2013-07-12 12:57:00,89.7,69.2,29.85,West,270,8.1,8.1,51,0.00,CLR,CLR,0.00,WeatherDisplay:10.37,2013-07-12 17:57:00,
2013-07-12 13:03:00,89.3,69.4,29.85,SSW,209,12.0,12.0,52,0.00,CLR,CLR,0.00,WeatherDisplay:10.37,2013-07-12 18:03:00,
2013-07-12 13:08:00,89.5,69.5,29.85,South,174,6.0,6.0,52,0.00,CLR,CLR,0.00,WeatherDisplay:10.37,2013-07-12 18:08:00,
2013-07-12 13:13:00,89.9,69.9,29.85,SSW,207,6.0,6.0,52,0.00,CLR,CLR,0.00,WeatherDisplay:10.37,2013-07-12 18:13:00,
2013-07-12 13:18:00,90.3,69.7,29.85,WSW,237,10.4,10.4,51,0.00,CLR,CLR,0.00,WeatherDisplay:10.37,2013-07-12 18:18:00,
2013-07-12 13:23:00,90.2,70.8,29.85,SSW,200,10.4,10.4,53,0.00,CLR,CLR,0.00,WeatherDisplay:10.37,2013-07-12 18:23:00,
2013-07-12 13:30:00,91.0,70.9,29.85,SW,232,2.0,6.0,52,0.00,CLR,CLR,0.00,WeatherDisplay:10.37,2013-07-12 18:30:00,
2013-07-12 13:35:00,91.5,71.9,29.85,SSW,201,2.0,6.0,53,0.00,CLR,CLR,0.00,WeatherDisplay:10.37,2013-07-12 18:35:00,
2013-07-12 13:40:00,91.9,71.2,29.85,SW,217,2.0,10.0,51,0.00,CLR,CLR,0.00,WeatherDisplay:10.37,2013-07-12 18:40:00,
2013-07-12 13:45:00,92.0,70.7,29.85,SW,223,7.0,7.0,50,0.00,CLR,CLR,0.00,WeatherDisplay:10.37,2013-07-12 18:45:00,
2013-07-12 13:50:00,92.3,70.4,29.84,SE,136,8.1,8.1,49,0.00,CLR,CLR,0.00,WeatherDisplay:10.37,2013-07-12 18:50:00,
2013-07-12 13:55:00,92.1,70.2,29.84,WSW,238,6.9,6.9,49,0.00,CLR,CLR,0.00,WeatherDisplay:10.37,2013-07-12 18:55:00,
2013-07-12 14:00:00,92.1,71.4,29.84,SSW,205,5.8,5.8,51,0.00,CLR,CLR,0.00,WeatherDisplay:10.37,2013-07-12 19:00:00,
2013-07-12 14:05:00,92.5,71.2,29.83,WSW,237,10.4,10.4,50,0.00,CLR,CLR,0.00,WeatherDisplay:10.37,2013-07-12 19:05:00,
2013-07-12 14:11:00,93.1,71.1,29.83,NNE,20,6.9,6.9,49,0.00,CLR,CLR,0.00,WeatherDisplay:10.37,2013-07-12 19:11:00,
2013-07-12 14:16:00,93.5,70.9,29.83,SSW,193,5.0,5.0,48,0.00,CLR,CLR,0.00,WeatherDisplay:10.37,2013-07-12 19:16:00,
2013-07-12 14:21:00,93.7,71.0,29.83,ESE,123,3.5,3.5,48,0.00,CLR,CLR,0.00,WeatherDisplay:10.37,2013-07-12 19:21:00,
2013-07-12 14:26:00,93.9,70.6,29.83,NNE,23,5.0,5.0,47,0.00,CLR,CLR,0.00,WeatherDisplay:10.37,2013-07-12 19:26:00,
2013-07-12 14:31:00,94.2,72.1,29.83,WNW,284,3.5,3.5,49,0.00,CLR,CLR,0.00,WeatherDisplay:10.37,2013-07-12 19:31:00,
2013-07-12 14:36:00,94.0,70.7,29.83,SSW,200,11.5,11.5,47,0.00,CLR,CLR,0.00,WeatherDisplay:10.37,2013-07-12 19:36:00,
2013-07-12 14:41:00,93.7,71.0,29.83,SSW,204,10.4,10.4,48,0.00,CLR,CLR,0.00,WeatherDisplay:10.37,2013-07-12 19:41:00,
2013-07-12 14:46:00,93.5,70.9,29.83,SW,215,6.9,6.9,48,0.00,CLR,CLR,0.00,WeatherDisplay:10.37,2013-07-12 19:46:00,
2013-07-12 14:51:00,93.9,70.6,29.82,SE,144,10.4,10.4,47,0.00,CLR,CLR,0.00,WeatherDisplay:10.37,2013-07-12 19:51:00,
2013-07-12 14:57:00,93.8,70.5,29.82,South,186,6.0,6.0,47,0.00,CLR,CLR,0.00,WeatherDisplay:10.37,2013-07-12 19:57:00,
2013-07-12 15:03:00,94.1,70.8,29.82,ESE,115,10.4,10.4,47,0.00,CLR,CLR,0.00,WeatherDisplay:10.37,2013-07-12 20:03:00,
2013-07-12 15:08:00,94.2,70.9,29.82,SSE,168,9.2,9.2,47,0.00,CLR,CLR,0.00,WeatherDisplay:10.37,2013-07-12 20:08:00,
2013-07-12 15:13:00,94.2,70.9,29.82,WNW,288,8.1,8.1,47,0.00,CLR,CLR,0.00,WeatherDisplay:10.37,2013-07-12 20:13:00,
2013-07-12 15:18:00,94.4,71.1,29.82,SE,138,9.2,9.2,47,0.00,CLR,CLR,0.00,WeatherDisplay:10.37,2013-07-12 20:18:00,
2013-07-12 15:24:00,94.3,71.0,29.82,South,186,11.5,11.5,47,0.00,CLR,CLR,0.00,WeatherDisplay:10.37,2013-07-12 20:24:00,
2013-07-12 15:29:00,94.6,71.2,29.82,SSW,197,6.9,6.9,47,0.00,CLR,CLR,0.00,WeatherDisplay:10.37,2013-07-12 20:29:00,
2013-07-12 15:34:00,94.5,71.8,29.82,SSW,211,6.0,6.0,48,0.00,CLR,CLR,0.00,WeatherDisplay:10.37,2013-07-12 20:34:00,
2013-07-12 15:39:00,94.8,71.4,29.82,SSW,213,4.6,4.6,47,0.00,CLR,CLR,0.00,WeatherDisplay:10.37,2013-07-12 20:39:00,
2013-07-12 15:44:00,94.6,70.6,29.82,SSW,210,6.9,6.9,46,0.00,CLR,CLR,0.00,WeatherDisplay:10.37,2013-07-12 20:44:00,
2013-07-12 15:49:00,94.6,71.2,29.82,South,177,7.0,7.0,47,0.00,CLR,CLR,0.00,WeatherDisplay:10.37,2013-07-12 20:49:00,
2013-07-12 15:54:00,94.7,71.3,29.82,SSW,213,5.0,5.0,47,0.00,CLR,CLR,0.00,WeatherDisplay:10.37,2013-07-12 20:54:00,
2013-07-12 15:59:00,94.8,70.8,29.82,SW,223,10.4,10.4,46,0.00,CLR,CLR,0.00,WeatherDisplay:10.37,2013-07-12 20:59:00,
2013-07-12 16:04:00,95.1,71.7,29.82,WNW,297,4.0,4.0,47,0.00,CLR,CLR,0.00,WeatherDisplay:10.37,2013-07-12 21:04:00,
2013-07-12 16:09:00,95.1,71.1,29.82,South,182,6.0,6.0,46,0.00,CLR,CLR,0.00,WeatherDisplay:10.37,2013-07-12 21:09:00,
2013-07-12 16:14:00,94.9,71.5,29.81,SW,217,6.0,6.0,47,0.00,CLR,CLR,0.00,WeatherDisplay:10.37,2013-07-12 21:14:00,
2013-07-12 16:19:00,95.0,71.6,29.81,ENE,71,4.0,4.0,47,0.00,CLR,CLR,0.00,WeatherDisplay:10.37,2013-07-12 21:19:00,
2013-07-12 16:25:00,94.8,71.5,29.81,SSW,197,3.0,10.0,47,0.00,CLR,CLR,0.00,WeatherDisplay:10.37,2013-07-12 21:25:00,
2013-07-12 16:30:00,94.6,71.2,29.81,SSW,194,2.0,10.0,47,0.00,CLR,CLR,0.00,WeatherDisplay:10.37,2013-07-12 21:30:00,
2013-07-12 16:35:00,94.9,71.5,29.81,South,186,3.0,9.0,47,0.00,CLR,CLR,0.00,WeatherDisplay:10.37,2013-07-12 21:35:00,
2013-07-12 16:40:00,94.8,71.4,29.81,South,180,3.0,8.0,47,0.00,CLR,CLR,0.00,WeatherDisplay:10.37,2013-07-12 21:40:00,
2013-07-12 16:45:00,94.6,71.2,29.81,SE,146,3.5,3.5,47,0.00,CLR,CLR,0.00,WeatherDisplay:10.37,2013-07-12 21:45:00,
2013-07-12 16:50:00,94.5,71.2,29.81,NNE,26,5.0,5.0,47,0.00,CLR,CLR,0.00,WeatherDisplay:10.37,2013-07-12 21:50:00,
2013-07-12 16:56:00,94.5,71.2,29.81,SW,221,4.6,4.6,47,0.00,CLR,CLR,0.00,WeatherDisplay:10.37,2013-07-12 21:56:00,
2013-07-12 17:01:00,94.3,71.6,29.81,SSE,154,4.0,4.0,48,0.00,CLR,CLR,0.00,WeatherDisplay:10.37,2013-07-12 22:01:00,
2013-07-12 17:07:00,93.8,71.1,29.81,ESE,123,10.0,10.0,48,0.00,CLR,CLR,0.00,WeatherDisplay:10.37,2013-07-12 22:07:00,
2013-07-12 17:12:00,93.8,71.1,29.81,WSW,252,6.0,6.0,48,0.00,CLR,CLR,0.00,WeatherDisplay:10.37,2013-07-12 22:12:00,
2013-07-12 17:17:00,93.8,71.7,29.82,SSW,211,8.0,8.0,49,0.00,CLR,CLR,0.00,WeatherDisplay:10.37,2013-07-12 22:17:00,
2013-07-12 17:22:00,93.7,71.7,29.81,South,186,5.0,5.0,49,0.00,CLR,CLR,0.00,WeatherDisplay:10.37,2013-07-12 22:22:00,
2013-07-12 17:27:00,93.7,71.7,29.81,SSW,211,3.5,3.5,49,0.00,CLR,CLR,0.00,WeatherDisplay:10.37,2013-07-12 22:27:00,
2013-07-12 17:32:00,93.5,70.9,29.81,NW,315,8.1,8.1,48,0.00,CLR,CLR,0.00,WeatherDisplay:10.37,2013-07-12 22:32:00,
2013-07-12 17:37:00,93.4,70.8,29.81,SW,232,9.2,9.2,48,0.00,CLR,CLR,0.00,WeatherDisplay:10.37,2013-07-12 22:37:00,
2013-07-12 17:42:00,93.2,71.2,29.81,SSE,168,8.1,8.1,49,0.00,CLR,CLR,0.00,WeatherDisplay:10.37,2013-07-12 22:42:00,
2013-07-12 17:47:00,93.1,71.1,29.81,SSW,210,8.1,8.1,49,0.00,CLR,CLR,0.00,WeatherDisplay:10.37,2013-07-12 22:47:00,
2013-07-12 17:52:00,93.2,71.2,29.81,SW,220,6.0,6.0,49,0.00,CLR,CLR,0.00,WeatherDisplay:10.37,2013-07-12 22:52:00,
2013-07-12 17:57:00,93.1,71.7,29.80,SE,142,4.0,4.0,50,0.00,CLR,CLR,0.00,WeatherDisplay:10.37,2013-07-12 22:57:00,
2013-07-12 18:02:00,93.1,71.1,29.80,WSW,257,9.2,9.2,49,0.00,CLR,CLR,0.00,WeatherDisplay:10.37,2013-07-12 23:02:00,
2013-07-12 18:07:00,92.9,70.9,29.80,ENE,63,4.0,4.0,49,0.00,CLR,CLR,0.00,WeatherDisplay:10.37,2013-07-12 23:07:00,
2013-07-12 18:12:00,92.8,71.4,29.80,SSW,198,6.0,6.0,50,0.00,CLR,CLR,0.00,WeatherDisplay:10.37,2013-07-12 23:12:00,
2013-07-12 18:17:00,92.8,71.4,29.80,SSW,196,9.0,9.0,50,0.00,CLR,CLR,0.00,WeatherDisplay:10.37,2013-07-12 23:17:00,
2013-07-12 18:22:00,92.8,71.4,29.80,SW,217,9.2,9.2,50,0.00,CLR,CLR,0.00,WeatherDisplay:10.37,2013-07-12 23:22:00,
2013-07-12 18:27:00,92.7,71.3,29.80,WNW,290,8.1,8.1,50,0.00,CLR,CLR,0.00,WeatherDisplay:10.37,2013-07-12 23:27:00,
2013-07-12 18:32:00,92.5,71.7,29.79,SW,232,4.0,4.0,51,0.00,CLR,CLR,0.00,WeatherDisplay:10.37,2013-07-12 23:32:00,
2013-07-12 18:37:00,92.4,71.6,29.79,ENE,75,4.0,4.0,51,0.00,CLR,CLR,0.00,WeatherDisplay:10.37,2013-07-12 23:37:00,
2013-07-12 18:42:00,92.4,71.6,29.80,SW,223,5.0,5.0,51,0.00,CLR,CLR,0.00,WeatherDisplay:10.37,2013-07-12 23:42:00,
2013-07-12 18:47:00,92.3,71.6,29.79,NNW,337,6.0,6.0,51,0.00,CLR,CLR,0.00,WeatherDisplay:10.37,2013-07-12 23:47:00,
2013-07-12 18:52:00,92.2,71.5,29.79,SW,221,8.0,8.0,51,0.00,CLR,CLR,0.00,WeatherDisplay:10.37,2013-07-12 23:52:00,
2013-07-12 18:57:00,92.1,71.9,29.80,SSW,208,5.0,5.0,52,0.00,CLR,CLR,0.00,WeatherDisplay:10.37,2013-07-12 23:57:00,
2013-07-12 19:02:00,92.1,71.4,29.80,SSW,204,7.0,7.0,51,0.00,CLR,CLR,0.00,WeatherDisplay:10.37,2013-07-13 00:02:00,
2013-07-12 19:08:00,91.8,71.1,29.79,SSW,200,7.0,7.0,51,0.00,CLR,CLR,0.00,WeatherDisplay:10.37,2013-07-13 00:08:00,
2013-07-12 19:13:00,91.6,71.5,29.79,NNW,342,8.1,8.1,52,0.00,CLR,CLR,0.00,WeatherDisplay:10.37,2013-07-13 00:13:00,
2013-07-12 19:19:00,91.5,71.4,29.79,SW,227,8.0,8.0,52,0.00,CLR,CLR,0.00,WeatherDisplay:10.37,2013-07-13 00:19:00,
2013-07-12 19:24:00,91.4,71.9,29.79,SSW,208,3.5,3.5,53,0.00,CLR,CLR,0.00,WeatherDisplay:10.37,2013-07-13 00:24:00,
2013-07-12 19:29:00,91.3,71.8,29.80,South,191,6.0,6.0,53,0.00,CLR,CLR,0.00,WeatherDisplay:10.37,2013-07-13 00:29:00,
2013-07-12 19:35:00,91.1,71.6,29.80,SSW,208,2.0,7.0,53,0.00,CLR,CLR,0.00,WeatherDisplay:10.37,2013-07-13 00:35:00,
2013-07-12 19:40:00,91.0,72.0,29.80,SW,218,1.0,6.0,54,0.00,CLR,CLR,0.00,WeatherDisplay:10.37,2013-07-13 00:40:00,
2013-07-12 19:45:00,90.8,71.9,29.79,WSW,251,3.5,3.5,54,0.00,CLR,CLR,0.00,WeatherDisplay:10.37,2013-07-13 00:45:00,
2013-07-12 19:50:00,90.7,71.8,29.80,NE,42,7.0,7.0,54,0.00,CLR,CLR,0.00,WeatherDisplay:10.37,2013-07-13 00:50:00,
2013-07-12 19:55:00,90.5,71.6,29.80,SSE,167,9.2,9.2,54,0.00,CLR,CLR,0.00,WeatherDisplay:10.37,2013-07-13 00:55:00,
2013-07-12 20:00:00,90.3,71.4,29.80,North,9,6.9,6.9,54,0.00,CLR,CLR,0.00,WeatherDisplay:10.37,2013-07-13 01:00:00,
2013-07-12 20:05:00,90.1,71.8,29.80,WNW,286,5.0,5.0,55,0.00,CLR,CLR,0.00,WeatherDisplay:10.37,2013-07-13 01:05:00,
2013-07-12 20:10:00,89.9,71.6,29.80,SE,131,5.0,5.0,55,0.00,CLR,CLR,0.00,WeatherDisplay:10.37,2013-07-13 01:10:00,
2013-07-12 20:15:00,89.8,72.0,29.80,SSW,202,4.0,4.0,56,0.00,CLR,CLR,0.00,WeatherDisplay:10.37,2013-07-13 01:15:00,
2013-07-12 20:20:00,89.5,72.3,29.80,NNW,340,2.3,2.3,57,0.00,CLR,CLR,0.00,WeatherDisplay:10.37,2013-07-13 01:20:00,
2013-07-12 20:25:00,89.2,72.0,29.80,SW,217,2.0,2.0,57,0.00,CLR,CLR,0.00,WeatherDisplay:10.37,2013-07-13 01:25:00,
2013-07-12 20:30:00,88.7,72.0,29.80,ENE,69,3.0,3.0,58,0.00,CLR,CLR,0.00,WeatherDisplay:10.37,2013-07-13 01:30:00,
2013-07-12 20:35:00,88.3,71.6,29.80,SSW,203,4.6,4.6,58,0.00,CLR,CLR,0.00,WeatherDisplay:10.37,2013-07-13 01:35:00,
2013-07-12 20:41:00,87.7,71.6,29.80,West,271,2.3,2.3,59,0.00,CLR,CLR,0.00,WeatherDisplay:10.37,2013-07-13 01:41:00,
2013-07-12 20:46:00,87.4,71.8,29.80,NNE,17,6.0,6.0,60,0.00,CLR,CLR,0.00,WeatherDisplay:10.37,2013-07-13 01:46:00,
2013-07-12 20:51:00,87.1,71.5,29.80,East,80,9.2,9.2,60,0.00,CLR,CLR,0.00,WeatherDisplay:10.37,2013-07-13 01:51:00,
2013-07-12 20:56:00,86.8,71.2,29.80,NE,54,3.5,3.5,60,0.00,CLR,CLR,0.00,WeatherDisplay:10.37,2013-07-13 01:56:00,
2013-07-12 21:01:00,86.6,71.1,29.80,ENE,70,3.5,3.5,60,0.00,CLR,CLR,0.00,WeatherDisplay:10.37,2013-07-13 02:01:00,
2013-07-12 21:06:00,86.4,71.4,29.80,SW,230,2.3,2.3,61,0.00,CLR,CLR,0.00,WeatherDisplay:10.37,2013-07-13 02:06:00,
2013-07-12 21:11:00,86.2,71.2,29.81,South,190,5.8,5.8,61,0.00,CLR,CLR,0.00,WeatherDisplay:10.37,2013-07-13 02:11:00,
2013-07-12 21:16:00,86.0,71.0,29.80,South,184,6.0,6.0,61,0.00,CLR,CLR,0.00,WeatherDisplay:10.37,2013-07-13 02:16:00,
2013-07-12 21:21:00,85.6,71.1,29.81,SSW,207,5.0,5.0,62,0.00,CLR,CLR,0.00,WeatherDisplay:10.37,2013-07-13 02:21:00,
2013-07-12 21:26:00,85.4,70.9,29.81,SW,232,3.0,3.0,62,0.00,CLR,CLR,0.00,WeatherDisplay:10.37,2013-07-13 02:26:00,
2013-07-12 21:32:00,85.1,71.1,29.81,SSW,213,2.0,2.0,63,0.00,CLR,CLR,0.00,WeatherDisplay:10.37,2013-07-13 02:32:00,
2013-07-12 21:37:00,84.9,70.9,29.81,SE,141,3.0,3.0,63,0.00,CLR,CLR,0.00,WeatherDisplay:10.37,2013-07-13 02:37:00,
2013-07-12 21:44:00,84.5,71.0,29.81,West,269,3.5,3.5,64,0.00,CLR,CLR,0.00,WeatherDisplay:10.37,2013-07-13 02:44:00,
2013-07-12 21:50:00,84.2,70.7,29.81,SSW,209,3.5,3.5,64,0.00,CLR,CLR,0.00,WeatherDisplay:10.37,2013-07-13 02:50:00,
2013-07-12 21:55:00,84.0,70.5,29.82,WSW,238,5.0,5.0,64,0.00,CLR,CLR,0.00,WeatherDisplay:10.37,2013-07-13 02:55:00,
2013-07-12 22:00:00,83.8,70.3,29.82,SSW,199,2.3,2.3,64,0.00,CLR,CLR,0.00,WeatherDisplay:10.37,2013-07-13 03:00:00,
2013-07-12 22:05:00,83.7,70.2,29.82,WSW,239,5.0,5.0,64,0.00,CLR,CLR,0.00,WeatherDisplay:10.37,2013-07-13 03:05:00,
2013-07-12 22:10:00,83.6,70.1,29.82,SSW,205,7.0,7.0,64,0.00,CLR,CLR,0.00,WeatherDisplay:10.37,2013-07-13 03:10:00,
2013-07-12 22:15:00,83.4,69.9,29.82,NNE,32,4.6,4.6,64,0.00,CLR,CLR,0.00,WeatherDisplay:10.37,2013-07-13 03:15:00,
2013-07-12 22:20:00,83.3,69.8,29.81,WSW,243,6.0,6.0,64,0.00,CLR,CLR,0.00,WeatherDisplay:10.37,2013-07-13 03:20:00,
2013-07-12 22:26:00,83.1,69.7,29.82,South,184,5.0,5.0,64,0.00,CLR,CLR,0.00,WeatherDisplay:10.37,2013-07-13 03:26:00,
2013-07-12 22:31:00,83.0,69.6,29.82,SSW,213,4.0,4.0,64,0.00,CLR,CLR,0.00,WeatherDisplay:10.37,2013-07-13 03:31:00,
2013-07-12 22:36:00,82.9,69.9,29.82,ESE,110,5.0,5.0,65,0.00,CLR,CLR,0.00,WeatherDisplay:10.37,2013-07-13 03:36:00,
2013-07-12 22:41:00,82.8,69.8,29.82,SW,219,5.0,5.0,65,0.00,CLR,CLR,0.00,WeatherDisplay:10.37,2013-07-13 03:41:00,
2013-07-12 22:46:00,82.8,69.8,29.82,ENE,75,9.2,9.2,65,0.00,CLR,CLR,0.00,WeatherDisplay:10.37,2013-07-13 03:46:00,
2013-07-12 22:52:00,82.7,69.7,29.82,South,188,6.0,6.0,65,0.00,CLR,CLR,0.00,WeatherDisplay:10.37,2013-07-13 03:52:00,
2013-07-12 22:57:00,82.6,69.6,29.82,SSE,161,8.0,8.0,65,0.00,CLR,CLR,0.00,WeatherDisplay:10.37,2013-07-13 03:57:00,
2013-07-12 23:01:00,82.5,69.5,29.82,SSW,197,8.1,8.1,65,0.00,CLR,CLR,0.00,WeatherDisplay:10.37,2013-07-13 04:01:00,
2013-07-12 23:02:00,82.4,69.4,29.82,NNW,333,8.1,8.1,65,0.00,CLR,CLR,0.00,WeatherDisplay:10.37,2013-07-13 04:02:00,
2013-07-12 23:03:00,82.4,69.4,29.82,SSW,211,4.0,4.0,65,0.00,CLR,CLR,0.00,WeatherDisplay:10.37,2013-07-13 04:03:00,
2013-07-12 23:08:00,82.4,69.4,29.82,SW,221,7.0,7.0,65,0.00,CLR,CLR,0.00,WeatherDisplay:10.37,2013-07-13 04:08:00,
2013-07-12 23:13:00,82.3,69.4,29.82,SSW,198,9.2,9.2,65,0.00,CLR,CLR,0.00,WeatherDisplay:10.37,2013-07-13 04:13:00,
2013-07-12 23:18:00,82.2,69.3,29.82,SSW,207,4.0,4.0,65,0.00,CLR,CLR,0.00,WeatherDisplay:10.37,2013-07-13 04:18:00,
2013-07-12 23:20:00,82.2,69.3,29.82,SSW,207,3.0,12.0,65,0.00,CLR,CLR,0.00,WeatherDisplay:10.37,2013-07-13 04:20:00,
2013-07-12 23:25:00,82.2,69.3,29.82,South,174,6.0,6.0,65,0.00,CLR,CLR,0.00,WeatherDisplay:10.37,2013-07-13 04:25:00,
2013-07-12 23:30:00,82.2,69.3,29.82,NE,46,5.8,5.8,65,0.00,CLR,CLR,0.00,WeatherDisplay:10.37,2013-07-13 04:30:00,
2013-07-12 23:35:00,82.2,69.3,29.82,SW,220,4.0,4.0,65,0.00,CLR,CLR,0.00,WeatherDisplay:10.37,2013-07-13 04:35:00,
2013-07-12 23:40:00,82.1,69.2,29.82,SSW,210,3.0,3.0,65,0.00,CLR,CLR,0.00,WeatherDisplay:10.37,2013-07-13 04:40:00,
2013-07-12 23:45:00,82.1,69.2,29.83,SW,224,8.1,8.1,65,0.00,CLR,CLR,0.00,WeatherDisplay:10.37,2013-07-13 04:45:00,
2013-07-12 23:50:00,82.0,69.1,29.83,SSE,148,6.0,6.0,65,0.00,CLR,CLR,0.00,WeatherDisplay:10.37,2013-07-13 04:50:00,
2013-07-12 23:56:00,82.0,69.1,29.83,SSW,202,7.0,7.0,65,0.00,CLR,CLR,0.00,WeatherDisplay:10.37,2013-07-13 04:56:00,